Weather History for Vacaville, CA

Change the Weather History Date:

Tuesday, January 8, 2013

  Actual Average Record
Temperature  
Mean Temperature 44 °F -  
Max Temperature 54 °F 52 °F 81 °F (1962)
Min Temperature 33 °F 36 °F 24 °F (1992)
Degree Days  
Heating Degree Days 22    
Moisture  
Dew Point 39 °F    
Average Humidity 95    
Maximum Humidity 100    
Minimum Humidity 69    
Precipitation  
Precipitation 0.00 in - - ()
Sea Level Pressure  
Sea Level Pressure 30.22 in    
Wind  
Wind Speed 1 mph (WSW)    
Max Wind Speed 5 mph    
Max Gust Speed -    
Visibility 3 miles    
Events Fog    
Averages and records for this station are not official NWS values.
T = Trace of Precipitation, MM = Missing Value Source: NWS Daily Summary

Daily Weather History Graph

Daily Weather History Graph

Search for Another Location

Airport:

Trip Planner

Search our weather history database for the weather conditions in past years. The results will help you decide how hot, cold, wet, or windy it might be!

Date:

Astronomy

Jan. 08, 2013 Rise Set
Actual Time 7:25 AM PST 5:04 PM PST
Civil Twilight 6:55 AM PST 5:33 PM PST
Nautical Twilight 6:22 AM PST 6:06 PM PST
Astronomical Twilight 5:51 AM PST 6:38 PM PST
Moon 4:04 AM PST (1/8) 2:11 PM PST (1/8)
Length of Visible Light 10h 38m
Length of Day
9h 39m
Waning Crescent, 13% of the Moon is Illuminated
Jan 8
Waning Crescent
Jan 11
New
Jan 18
First Quarter
Jan 26
Full
Feb 3
Last Quarter

Hourly Weather History & Observations

Time (PST) Temp. Windchill Dew Point Humidity Pressure Visibility Wind Dir Wind Speed Gust Speed Precip Events Conditions
12:01 AM 39.2 °F - 37.4 °F 93% 30.22 in 1.8 mi Calm Calm - N/A   Clear
12:23 AM 39.2 °F - 39.2 °F 100% 30.23 in 3.0 mi Calm Calm - N/A   Clear
12:33 AM 39.2 °F - 37.4 °F 93% 30.23 in 1.8 mi Calm Calm - N/A   Clear
12:53 AM 39.0 °F - 37.9 °F 96% 30.22 in 0.8 mi Calm Calm - N/A   Clear
1:00 AM 37.4 °F - 37.4 °F 100% 30.23 in 2.0 mi Calm Calm - N/A   Clear
1:04 AM 37.4 °F - 37.4 °F 100% 30.23 in 2.0 mi Calm Calm - N/A   Partly Cloudy
1:07 AM 37.4 °F - 37.4 °F 100% 30.22 in 1.0 mi Calm Calm - N/A   Mist
1:15 AM 37.4 °F 34.9 °F 37.4 °F 100% 30.23 in 0.5 mi WSW 3.5 mph - N/A Fog Fog
1:20 AM 39.2 °F 37.0 °F 37.4 °F 93% 30.23 in 1.2 mi WSW 3.5 mph - N/A   Partly Cloudy
1:24 AM 37.4 °F - 37.4 °F 100% 30.23 in 3.0 mi Calm Calm - N/A   Partly Cloudy
1:53 AM 36.0 °F - 36.0 °F 100% 30.22 in 1.5 mi Calm Calm - N/A   Clear
2:08 AM 37.4 °F - 37.4 °F 100% 30.23 in 3.0 mi Calm Calm - N/A   Clear
2:24 AM 35.6 °F - 35.6 °F 100% 30.23 in 1.8 mi Calm Calm - N/A   Clear
2:46 AM 37.4 °F 34.9 °F 37.4 °F 100% 30.22 in 1.0 mi East 3.5 mph - N/A   Mist
2:49 AM 37.4 °F 34.9 °F 37.4 °F 100% 30.22 in 0.8 mi NNE 3.5 mph - N/A   Mist
2:53 AM 37.9 °F 35.5 °F 37.9 °F 100% 30.23 in 0.5 mi Variable 3.5 mph - N/A Fog Fog
3:05 AM 37.4 °F - 37.4 °F 100% 30.23 in 0.5 mi Calm Calm - N/A Fog Fog
3:23 AM 35.6 °F 32.8 °F 35.6 °F 100% 30.23 in 1.0 mi WNW 3.5 mph - N/A   Mostly Cloudy
3:32 AM 35.6 °F 32.8 °F 35.6 °F 100% 30.24 in 0.8 mi NNW 3.5 mph - N/A   Mist
3:53 AM 35.1 °F - 35.1 °F 100% 30.23 in 0.2 mi Calm Calm - N/A Fog Fog
4:53 AM 35.1 °F - 35.1 °F 100% 30.22 in 0.2 mi Calm Calm - N/A Fog Fog
5:53 AM 33.1 °F - 33.1 °F 100% 30.22 in 0.2 mi Calm Calm - N/A Fog Fog
6:30 AM 33.8 °F - 33.8 °F 100% 30.23 in 0.2 mi Calm Calm - N/A Fog Fog
6:53 AM 34.0 °F - 34.0 °F 100% 30.24 in 0.2 mi Calm Calm - N/A Fog Fog
7:53 AM 36.0 °F - 36.0 °F 100% 30.25 in 0.2 mi Calm Calm - N/A Fog Fog
8:53 AM 37.9 °F - 37.9 °F 100% 30.28 in 0.2 mi Calm Calm - N/A Fog Fog
9:53 AM 39.0 °F - 39.0 °F 100% 30.29 in 0.2 mi Calm Calm - N/A Fog Fog
10:53 AM 44.1 °F - 44.1 °F 100% 30.27 in 1.0 mi Calm Calm - N/A   Overcast
11:02 AM 42.8 °F - 42.8 °F 100% 30.26 in 3.0 mi Calm Calm - N/A   Mostly Cloudy
11:19 AM 44.6 °F - 42.8 °F 93% 30.25 in 4.0 mi Calm Calm - N/A   Partly Cloudy
11:53 AM 48.9 °F - 43.0 °F 80% 30.23 in 5.0 mi Calm Calm - N/A   Haze
12:53 PM 52.0 °F - 43.0 °F 71% 30.21 in 6.0 mi Variable 4.6 mph - N/A   Haze
1:53 PM 53.1 °F - 44.1 °F 71% 30.19 in 6.0 mi Variable 3.5 mph - N/A   Haze
2:53 PM 54.0 °F - 44.1 °F 69% 30.19 in 7.0 mi Calm Calm - N/A   Clear
3:53 PM 53.1 °F - 44.1 °F 71% 30.19 in 7.0 mi SE 3.5 mph - N/A   Clear
4:53 PM 48.9 °F - 44.1 °F 83% 30.18 in 6.0 mi Calm Calm - N/A   Haze
5:53 PM 43.0 °F - 41.0 °F 93% 30.17 in 7.0 mi Calm Calm - N/A   Clear
6:53 PM 45.0 °F 43.5 °F 42.1 °F 90% 30.18 in 5.0 mi SW 3.5 mph - N/A   Clear
7:53 PM 43.0 °F 41.3 °F 41.0 °F 93% 30.18 in 5.0 mi SW 3.5 mph - N/A   Clear
9:53 PM 43.0 °F 41.3 °F 41.0 °F 93% 30.19 in 6.0 mi WSW 3.5 mph - N/A   Clear
10:53 PM 39.9 °F - 39.0 °F 97% 30.19 in 5.0 mi Calm Calm - N/A   Clear
11:53 PM 39.9 °F - 39.9 °F 100% 30.19 in 5.0 mi Calm Calm - N/A   Clear